Regional Weather Roundup
Issued by NWS

Home | Current Version | Previous Version | Text Only | Print | Product List | Glossary Off
Versions: 1 2 3 4 5 6 7 8 9 10 11 12 13 14 15 16 17 18 19 20 21 22 23 24 25 26 27 28 29 30 31 32 33 34 35 36 37 38 39 40 41 42 43 44 45 46 47 48 49 50

000
ASUS45 KABQ 260510
RWRNM
WEATHER ROUNDUP FOR NEW MEXICO
NATIONAL WEATHER SERVICE ALBUQUERQUE NM
1000 PM MST TUE NOV 25 2014

NOTE: "FAIR" MEANS FEW OR NO CLOUDS BELOW 12,000 FEET AGL WITH NO
       SIGNIFICANT WEATHER OR OBSTRUCTIONS TO VISION.

      THIS PRODUCT IS RELEASED AS TWO VERSIONS.  ONE VERSION NEAR
      THE TOP OF THE HOUR CONTAINING PRELIMINARY DATA FROM ALBUQUERQUE
      AND OTHER STATIONS.  A FINAL VERSION WITH ADDITIONAL DATA IS
      ISSUED ABOUT 10 MINUTES AFTER THE HOUR.

NMZ501-503-504-510>518-260600-
NORTHWEST PLATEAU/NORTHCENTRAL MOUNTAINS

CITY           SKY/WX    TMP DP  RH WIND       PRES   REMARKS
FARMINGTON     CLEAR     33   5  30 CALM      30.32R
LOS ALAMOS     CLEAR     31   8  38 S7        30.27F WCI  24
SANTA FE       CLEAR     35  10  35 N14       30.26R WCI  26
TAOS           CLEAR     25   9  50 CALM      30.27R
ANGEL FIRE     FAIR      27   7  42 SW18G24   30.23S WCI  14

$$
NMZ402-403-502-505>509-260600-
WESTCENTRAL MOUNTAINS/SOUTHWEST MOUNTAINS

CITY           SKY/WX    TMP DP  RH WIND       PRES   REMARKS
GALLUP         CLEAR     32   0  25 W5        30.38S WCI  27
GRANTS         CLEAR     36   3  25 N8        30.33S WCI  29
SILVER CITY    CLEAR     37   0  20 N10       30.34S WCI  30

$$
NMZ407-409-411-412-260600-
SOUTHERN DESERTS

CITY           SKY/WX    TMP DP  RH WIND       PRES   REMARKS
LORDSBURG      FAIR      34   0  23 NW3       30.33R
DEMING         CLEAR     36   0  21 W8        30.31F WCI  30
LAS CRUCES     CLEAR     40   4  22 SW8       30.31R WCI  34
HOLLOMAN AFB   PTCLDY    31   4  30 NE8       30.28S WCI  24
ALAMOGORDO     PTCLDY    37   5  25 MISG      30.29R
T OR C         CLEAR     39   6  25 CALM      30.29R

$$
NMZ519>523-260600-
CENTRAL VALLEYS/CENTRAL HIGHLANDS

CITY           SKY/WX    TMP DP  RH WIND       PRES   REMARKS
ALBUQUERQUE    PTCLDY    38   6  26 NW8       30.29S WCI  32
DOUBLE EAGLE   CLEAR     27   2  34 CALM      30.30F
MORIARTY ARPT  FAIR      41  16  37 N8        30.26R
CLINES CORNERS PTCLDY    31   9  39 W13       30.21R WCI  21
BELEN          FAIR      32   3  28 W3        30.30S
SOCORRO        FAIR      38   1  21 S3        30.28F

$$
NMZ524>526-539-540-260600-
SOUTHCENTRAL MOUNTAINS

CITY           SKY/WX    TMP DP  RH WIND       PRES   REMARKS
RUIDOSO        CLEAR     39   5  24 NW13G23   30.25R WCI  32

$$
NMZ527>531-260600-
NORTHEAST HIGHLANDS/NORTHEAST PLAINS

CITY           SKY/WX    TMP DP  RH WIND       PRES   REMARKS
LAS VEGAS      PTCLDY    31  14  49 NE6       30.12S WCI  25
RATON          CLEAR     31  17  56 W9        30.05R WCI  23
CLAYTON        CLEAR     34  16  47 W9        30.00R WCI  27

$$
NMZ532>537-260600-
EASTCENTRAL PLAINS

CITY           SKY/WX    TMP DP  RH WIND       PRES   REMARKS
TUCUMCARI      CLEAR     45  16  31 W18       30.03F
CANNON AFB     CLEAR     45  11  25 NW15      30.07S
CLOVIS AIRPORT CLEAR     45  10  24 W20       30.06S

$$
NMZ028-029-538-260600-
SOUTHEAST PLAINS

CITY           SKY/WX    TMP DP  RH WIND       PRES   REMARKS
ROSWELL        CLEAR     39  14  36 SW3       30.14R
CARLSBAD       CLEAR     51   8  17 NW8G20    30.12F
HOBBS          CLEAR     45   9  23 W13       30.13S


$$



USA.gov is the U.S. government's official web portal to all federal, state and local government web resources and services.